Weather History for KFVE - November, 2010

Change the Weather History Date:

Tuesday, November 2, 2010

  Actual Average Record
Temperature  
Mean Temperature 32 °F 36 °F  
Max Temperature 36 °F 42 °F 57 °F (1997)
Min Temperature 28 °F 29 °F 15 °F (2002)
Degree Days  
Heating Degree Days 33    
Month to date heating degree days 64  
Since 1 July heating degree days 1192  
Cooling Degree Days 0    
Month to date cooling degree days 0  
Year to date cooling degree days 268  
Moisture  
Dew Point 22 °F    
Average Humidity 68    
Maximum Humidity 80    
Minimum Humidity 56    
Precipitation  
Precipitation 0.00 in 0.09 in 0.16 in (1997)
Month to date precipitation 0.02 0.18  
Year to date precipitation 30.26 28.30  
Sea Level Pressure  
Sea Level Pressure 30.30 in    
Wind  
Wind Speed 11 mph (NNW)    
Max Wind Speed 20 mph    
Max Gust Speed 25 mph    
Visibility 10 miles    
Events      
T = Trace of Precipitation, MM = Missing Value Source: NWS Daily Summary

Daily Weather History Graph

Daily Weather History Graph

Search for Another Location

Airport or City:

Trip Planner

Search our weather history database for the weather conditions in past years. The results will help you decide how hot, cold, wet, or windy it might be!

Date:

Astronomy

Nov. 02, 2010 Rise Set
Actual Time 7:17 AM EDT 5:14 PM EDT
Civil Twilight 6:45 AM EDT 5:47 PM EDT
Nautical Twilight 6:09 AM EDT 6:23 PM EDT
Astronomical Twilight 5:34 AM EDT 6:58 PM EDT
Moon 2:45 AM EDT (11/2) 3:04 PM EDT (11/2)
Length of Visible Light 11h 01m
Length of Day
9h 56m
Waning Crescent, 17% of the Moon is Illuminated
Nov 2
Waning Crescent
Nov 6
New
Nov 13
First Quarter
Nov 21
Full
Nov 28
Last Quarter

Hourly Weather History & Observations

Time (EDT) Temp. Windchill Dew Point Humidity Pressure Visibility Wind Dir Wind Speed Gust Speed Precip Events Conditions
12:18 AM 30.2 °F 22.6 °F 21.2 °F 69% 30.26 in 10.0 mi NNW 8.1 mph 18.4 mph N/A   Overcast
12:53 AM 30.0 °F 21.7 °F 21.0 °F 69% 30.29 in 10.0 mi North 9.2 mph - N/A   Overcast
1:53 AM 30.0 °F 20.5 °F 19.9 °F 66% 30.30 in 10.0 mi NNW 11.5 mph - N/A   Overcast
2:53 AM 28.9 °F 19.2 °F 19.9 °F 69% 30.30 in 10.0 mi NNW 11.5 mph 20.7 mph N/A   Overcast
3:53 AM 28.9 °F 18.6 °F 19.0 °F 67% 30.30 in 10.0 mi North 12.7 mph - N/A   Overcast
4:53 AM 28.9 °F 19.8 °F 19.9 °F 69% 30.31 in 10.0 mi North 10.4 mph - N/A   Overcast
5:53 AM 28.0 °F 18.6 °F 19.9 °F 72% 30.32 in 10.0 mi NNW 10.4 mph - N/A   Overcast
6:53 AM 28.0 °F 18.6 °F 19.0 °F 69% 30.33 in 10.0 mi NNW 10.4 mph 20.7 mph N/A   Overcast
7:53 AM 28.0 °F 16.1 °F 19.0 °F 69% 30.35 in 10.0 mi NNW 16.1 mph 21.9 mph N/A   Overcast
8:53 AM 28.0 °F 15.7 °F 19.9 °F 72% 30.35 in 10.0 mi NNW 17.3 mph - N/A   Overcast
9:53 AM 28.9 °F 19.2 °F 19.9 °F 69% 30.35 in 10.0 mi NNW 11.5 mph 21.9 mph N/A   Overcast
10:53 AM 30.0 °F 19.5 °F 21.0 °F 69% 30.35 in 10.0 mi NNW 13.8 mph 19.6 mph N/A   Overcast
11:53 AM 30.9 °F 22.2 °F 21.0 °F 67% 30.35 in 10.0 mi NNW 10.4 mph 18.4 mph N/A   Overcast
12:53 PM 33.1 °F 23.4 °F 21.0 °F 61% 30.32 in 10.0 mi NW 13.8 mph 21.9 mph N/A   Overcast
1:53 PM 35.1 °F 26.4 °F 21.0 °F 57% 30.30 in 10.0 mi NNW 12.7 mph 17.3 mph N/A   Overcast
2:14 PM 35.6 °F 27.5 °F 21.2 °F 56% 30.27 in 10.0 mi NNW 11.5 mph - N/A   Mostly Cloudy
2:53 PM 35.1 °F 25.2 °F 21.0 °F 57% 30.30 in 10.0 mi NW 16.1 mph 23.0 mph N/A   Clear
3:53 PM 34.0 °F 26.6 °F 21.0 °F 59% 30.28 in 10.0 mi NW 9.2 mph - N/A   Partly Cloudy
4:53 PM 32.0 °F 23.6 °F 21.9 °F 66% 30.28 in 10.0 mi NNW 10.4 mph - N/A   Partly Cloudy
5:33 PM 32.0 °F 25.6 °F 21.2 °F 64% 30.25 in 10.0 mi NNW 6.9 mph - N/A   Mostly Cloudy
5:53 PM 32.0 °F 26.4 °F 23.0 °F 69% 30.29 in 10.0 mi NW 5.8 mph - N/A   Overcast
6:53 PM 33.1 °F 27.7 °F 24.1 °F 70% 30.29 in 10.0 mi NW 5.8 mph - N/A   Overcast
7:53 PM 33.1 °F 28.7 °F 25.0 °F 72% 30.29 in 10.0 mi WNW 4.6 mph - N/A   Overcast
8:53 PM 33.1 °F 27.7 °F 26.1 °F 75% 30.28 in 10.0 mi NW 5.8 mph - N/A   Overcast
9:53 PM 33.1 °F 26.1 °F 27.0 °F 78% 30.28 in 10.0 mi NW 8.1 mph - N/A   Overcast
10:53 PM 33.1 °F 24.4 °F 24.1 °F 70% 30.26 in 10.0 mi NW 11.5 mph 19.6 mph N/A   Overcast
11:40 PM 30.2 °F 23.4 °F 24.8 °F 80% 30.21 in 10.0 mi NW 6.9 mph - N/A   Scattered Clouds
11:53 PM 30.0 °F 24.1 °F 24.1 °F 79% 30.24 in 10.0 mi NNW 5.8 mph - N/A   Clear